Showing default

ENMAP, 52159

Orbit data source: Space-Track

ENMAP, 52159 is a payload satellite owned by DLR (DE) in SSO that was launched on Fri, 01 Apr 2022 UTC via an FALCON 9 launch vehicle from the Air Force Eastern Test Range (AFETR). Payload-class satellites include a variety of spacecraft equipped with specific instruments for various scientific and technological missions. These include communications satellites like Starlink; space stations such as the ISS; scientific satellites like the Hubble; Earth observation satellites from companies like Planet Labs, Umbra, and HawkEye 360; GPS; miniature CubeSats for education and research; and military/defense satellites.

Loading next visibility...
Identifier
52159, 2022-033C
Orbit
SSO
Country
Flag of DEDE / GER
Related business
Manufacturer
KTHR/OHB
Mission
Operational Civil Imaging
Bus & Motor
ENMAP, AOCS
Mass
916 kg wet, ~857 kg dry
Launch date (UTC)
2022-04-01 (4 years ago)
Launch vehicle
FALCON 9
Launch site
Air Force Eastern Test Range (AFETR)
Object type
Payload
Rocket body
Debris
Shape & HBR
Box + 1 Pan, 2.0 m
Radar Cross Section
5.352 m², Large (>1 m²)

Expand to show TLE details & history
Last TLE update: 12 hours ago

TLE from 12 hours ago
0 ENMAP
1 52159U 22033C   26150.18826480  .00000706  00000-0  11255-3 0  9993
2 52159  97.9796 232.6930 0001404  88.5224 271.6145 14.74970461224001
Epoch: 2026-05-30T04:31Z
TLE epoch observation values (Epoch: 2026-05-30T04:31:06.078Z)
Latitude
-0.00011°
Longitude
-82.79019°
Altitude
648.23 km
Speed
7.534 km/s
True Right ascension
15h 30m 46s
True Declination
0° 00' 00"
Sunlit
Object was in full shadow at epoch
Visualization orbit readout
Latitude
Unknown
Longitude
Unknown
Altitude
Unknown
Speed
Unknown
Apparent Right ascension
Unknown
Apparent Declination
Unknown
Sunlit
N/A
Visualization observer readout
Local Sidereal Time
01:38:30
Azimuth
Unknown
Elevation
Unknown
Doppler factor
Unknown
Orbital elements
Apogee altitude
643.282 km
Perigee altitude
641.311 km
Semi-major axis
7,020.433 km
Eccentricity
0.00014
Inclination
97.9796°
RAAN
232.693°
Arg. of periapsis
88.5224°
True anomaly
271.59842°
Mean anomaly
271.6145°
Eccentric anomaly
271.60646°
Mean motion
3.68975 °/min
Orbital period
97.57 mins
BSTAR
0.00011255
Loading maneuver chart data...
Computing Atmospheric mass density...

Documentation

Showing up to 5 results
|